CW4326 Weather Reports


time (UTC)temp
F
wind
direction
speed
knots
gust
knots
rain 1hr
in
rain 24hr
in
rain mn
in
humidity
%
barometer
mb
20260506123605 51 314 0.9 2.6 0.02 0.28 0.28 92 1013.5
20260506123105 51 314 0.0 2.6 0.02 0.28 0.28 92 1013.5
20260506121605 51 2 0.0 0.9 0.03 0.28 0.28 92 1013.5
20260506120605 50 357 0.0 0.0 0.04 0.28 0.28 92 1013.6
20260506120104 50 357 0.0 0.0 0.05 0.28 0.28 92 1013.5
20260506115605 50 357 0.0 2.6 0.06 0.28 0.28 92 1013.5
20260506115105 50 345 0.0 0.9 0.05 0.28 0.28 92 1013.6
20260506114605 50 345 0.0 0.9 0.05 0.28 0.28 92 1013.5
20260506114105 50 345 0.0 0.9 0.06 0.28 0.28 92 1013.5
20260506113605 50 345 0.0 0.9 0.05 0.27 0.27 92 1013.5
20260506113104 50 345 0.0 0.9 0.06 0.27 0.27 92 1013.5
20260506112605 50 345 0.0 1.7 0.06 0.26 0.26 92 1013.6
20260506111605 50 345 0.0 0.0 0.06 0.25 0.25 92 1013.6
20260506110605 50 45 0.0 2.6 0.05 0.24 0.24 92 1013.5
20260506104605 50 0 0.0 0.9 0.03 0.23 0.23 92 1013.5
20260506104105 50 12 0.0 0.9 0.02 0.22 0.22 92 1013.5
20260506103605 50 12 0.0 0.9 0.02 0.22 0.22 92 1013.3
20260506102605 50 348 0.0 1.7 0.01 0.20 0.20 92 1013.4
20260506101104 49 357 0.0 4.3 0.00 0.20 0.20 91 1013.3
20260506100604 49 1 0.9 5.2 0.00 0.20 0.20 91 1013.2
20260506100105 49 345 0.9 2.6 0.00 0.20 0.20 91 1013.2
20260506092605 49 352 0.9 4.3 0.01 0.20 0.20 92 1012.9
20260506091105 49 57 0.0 4.3 0.01 0.20 0.20 92 1012.8
20260506090605 49 321 0.0 4.3 0.01 0.20 0.20 92 1012.8
20260506085605 49 43 0.9 7.8 0.01 0.20 0.20 92 1012.8
20260506085105 50 43 0.0 5.2 0.01 0.20 0.20 92 1012.8
20260506084604 50 340 0.0 7.0 0.01 0.20 0.20 92 1012.7
20260506084105 50 34 0.9 5.2 0.01 0.20 0.20 92 1012.7
20260506083105 50 275 0.0 2.6 0.02 0.20 0.20 93 1012.8
20260506082604 49 355 0.0 1.7 0.02 0.19 0.19 93 1012.8
20260506073105 48 351 0.0 2.6 0.06 0.18 0.18 92 1012.6
20260506072605 48 343 0.9 4.3 0.06 0.17 0.17 92 1012.5
20260506072105 48 341 0.0 2.6 0.05 0.15 0.15 92 1012.6
20260506062105 46 246 0.0 0.0 0.10 0.10 0.10 92 1012.4
20260506061604 46 246 0.0 1.7 0.09 0.09 0.09 92 1012.3
20260506060605 45 338 0.0 0.0 0.06 0.06 0.06 91 1012.4
20260506060105 45 338 0.0 0.0 0.04 0.04 0.04 91 1012.4
20260506051104 43 338 0.0 0.0 0.00 0.00 0.00 90 1012.3
20260506050605 43 338 0.0 0.9 0.00 0.00 0.00 91 1012.3
20260506044105 41 327 0.0 0.0 0.00 0.00 0.00 90 1012.2
20260506042105 41 327 0.0 0.0 0.00 0.00 0.00 90 1012.2
20260506041605 41 327 0.0 0.0 0.00 0.00 0.00 90 1012.3
20260506041105 41 327 0.0 2.6 0.00 0.00 0.00 89 1012.2
20260506034605 42 327 0.0 0.0 0.00 0.00 0.00 89 1012.3
20260506034105 42 327 0.0 0.0 0.00 0.00 0.00 89 1012.3
20260506032604 42 327 0.0 0.0 0.00 0.00 0.00 89 1012.5
20260506031605 42 327 0.0 0.0 0.00 0.00 0.00 88 1012.7
20260506031105 42 327 0.0 0.9 0.00 0.00 0.00 88 1012.7
20260506030105 42 327 0.0 1.7 0.00 0.00 0.00 88 1012.8
20260506025605 42 327 0.0 0.0 0.00 0.00 0.00 88 1012.8
20260506025105 42 327 0.0 0.0 0.00 0.00 0.00 88 1012.8
20260506022105 43 327 0.0 0.0 0.00 0.00 0.00 87 1013.0
20260506021605 43 327 0.0 0.0 0.00 0.00 0.00 87 1012.9
20260506020605 43 321 0.0 0.9 0.00 0.00 0.00 87 1013.0
20260506020106 44 318 0.0 0.0 0.00 0.00 0.00 87 1013.0
20260506015104 44 318 0.0 0.0 0.00 0.00 0.00 87 1013.1
20260506014105 44 318 0.0 0.0 0.00 0.00 0.00 87 1013.1
20260506013604 45 318 0.0 0.9 0.00 0.00 0.00 87 1013.1
20260506013104 45 326 0.0 0.9 0.00 0.00 0.00 87 1013.1
20260506012104 45 328 0.0 0.0 0.00 0.00 0.00 87 1013.2
20260506011604 45 328 0.0 0.9 0.00 0.00 0.00 86 1013.2
20260506005604 46 310 0.9 2.6 0.00 0.00 0.00 86 1013.3
20260506005105 46 303 0.0 0.9 0.00 0.00 0.00 86 1013.3
20260506004605 46 333 0.0 0.0 0.00 0.00 0.00 86 1013.3
20260506003104 47 330 0.9 2.6 0.00 0.00 0.00 86 1013.4
20260506002605 47 330 0.0 2.6 0.00 0.00 0.00 86 1013.5
20260506002105 47 324 0.0 0.9 0.00 0.00 0.00 87 1013.5
20260506001605 47 324 0.0 0.0 0.00 0.00 0.00 87 1013.4
20260506000605 47 328 0.0 4.3 0.00 0.00 0.00 87 1013.5
20260506000105 47 330 0.9 4.3 0.00 0.00 0.00 87 1013.6
20260505235605 47 325 0.0 2.6 0.00 0.00 0.00 87 1013.7
20260505235105 47 325 0.0 0.0 0.00 0.00 0.00 87 1013.6
20260505232605 47 354 0.0 0.0 0.00 0.00 0.00 86 1013.7
20260505232104 47 354 0.0 0.0 0.00 0.00 0.00 86 1013.7
20260505230604 48 0 0.0 0.9 0.00 0.00 0.00 86 1013.9
20260505223605 48 334 0.0 1.7 0.00 0.00 0.00 86 1014.0
20260505222105 48 346 0.0 2.6 0.00 0.00 0.00 86 1014.1
20260505220105 48 350 0.0 0.9 0.00 0.00 0.00 86 1014.1
20260505215604 48 338 0.0 0.9 0.00 0.00 0.00 85 1014.1
20260505215105 48 320 0.0 1.7 0.00 0.00 0.00 85 1014.0
20260505214104 49 25 0.0 0.9 0.00 0.00 0.00 85 1014.1
20260505213104 49 10 0.0 0.0 0.00 0.00 0.00 85 1014.1
20260505212105 49 353 0.0 0.9 0.00 0.00 0.00 85 1014.1
20260505211605 49 54 0.9 2.6 0.00 0.00 0.00 85 1014.0
20260505211105 49 328 0.0 0.9 0.00 0.00 0.00 84 1014.1
20260505210604 49 328 0.0 2.6 0.00 0.00 0.00 84 1014.1
20260505204605 50 20 0.0 1.7 0.00 0.00 0.00 84 1014.2
20260505202104 50 313 0.0 2.6 0.00 0.00 0.00 83 1014.2
20260505194605 51 353 0.0 0.0 0.00 0.00 0.00 81 1013.9
20260505193105 51 353 0.0 0.9 0.00 0.00 0.00 80 1013.7
20260505192104 52 353 0.0 4.3 0.00 0.00 0.00 80 1013.7
20260505191605 52 14 0.0 2.6 0.00 0.00 0.00 80 1013.6
20260505190605 52 18 0.9 1.7 0.00 0.00 0.00 79 1013.6
20260505190104 52 44 0.0 2.6 0.00 0.00 0.00 79 1013.6
20260505185105 53 4 0.0 2.6 0.00 0.00 0.00 78 1013.6
20260505184605 53 25 0.0 0.9 0.00 0.00 0.00 77 1013.6
20260505183605 53 15 0.0 2.6 0.00 0.00 0.00 77 1013.5
20260505182105 54 36 0.0 2.6 0.00 0.00 0.00 76 1013.4
20260505181605 54 349 0.0 2.6 0.00 0.00 0.00 76 1013.4
20260505180604 54 35 0.0 0.9 0.00 0.00 0.00 75 1013.5
20260505175604 55 53 0.0 2.6 0.00 0.00 0.00 74 1013.4
20260505174604 55 40 0.0 4.3 0.00 0.00 0.00 74 1013.4
20260505174105 55 49 0.9 4.3 0.00 0.00 0.00 74 1013.3
20260505173605 55 2 0.0 2.6 0.00 0.00 0.00 74 1013.3
20260505172605 55 36 0.9 6.1 0.00 0.00 0.00 74 1013.3
20260505172105 55 19 0.9 4.3 0.00 0.00 0.00 74 1013.3
20260505165105 56 356 0.9 2.6 0.00 0.00 0.00 73 1013.3
20260505164605 57 60 0.9 2.6 0.00 0.00 0.00 73 1013.3
20260505162105 58 353 0.0 2.6 0.00 0.00 0.00 69 1013.1
20260505160604 59 3 0.0 6.1 0.00 0.00 0.00 68 1013.1
20260505160105 59 10 0.9 2.6 0.00 0.00 0.00 68 1013.1
20260505153104 59 37 0.0 4.3 0.00 0.00 0.00 67 1013.2
20260505152605 59 64 0.0 2.6 0.00 0.00 0.00 68 1013.2
20260505152105 59 38 0.0 2.6 0.00 0.00 0.00 68 1013.2
20260505151605 59 59 0.0 1.7 0.00 0.00 0.00 68 1013.2
20260505150605 59 355 0.9 5.2 0.00 0.00 0.00 69 1013.1
20260505150105 59 1 0.9 4.3 0.00 0.00 0.00 70 1013.2
20260505140605 63 53 0.9 7.0 0.00 0.00 0.00 61 1013.3
20260505124604 64 57 0.0 2.6 0.00 0.00 0.00 54 1012.9